Location: Marne
(34.0056°N, 117.9064°W)
Time: 13:46:20
(UTC+00:00)

Cosmos 2219 Rocket - Pass Details

Date: 18 January 2020
Orbit: 827 x 848 km, 71.0° (Epoch: 22 February)

Event Time Altitude Azimuth Distance (km) Brightness Sun altitude
Rises 02:26:58 0° 338° (NNW) 3,413 5.5 -16.4°
Reaches altitude 10° 02:29:25 10° 337° (NNW) 2,473 4.7 -16.9°
Maximum altitude 02:35:07 83° 252° (WSW) 854 2.2 -18.1°
Drops below altitude 10° 02:40:45 10° 164° (SSE) 2,449 4.6 -19.2°
Sets 02:43:10 0° 163° (SSE) 3,377 5.3 -19.7°
